sat.trackr.live / text

‹ back to catalog

STARLINK-33930

NORAD 63776 · 2025-091B

PAYLOAD ACTIVE UNKNOWN

§ Identity

Operator
Country
US
Launch date
2025-05-02
Launch site
AFETR
Launch vehicle
Mass (kg)
RCS (m²)

Purposes: comms

External: N2YO · Heavens-Above · Gunter

§ Orbital elements

Epoch: 2026-09-20T16:54:45.590112Z

Period
94.27 min
Inclination
42.9986°
Eccentricity
0.0001529
Mean motion
15.27595570 rev/d
Perigee alt
482.0 km
Apogee alt
484.1 km
Semi-major
6,861.1 km
B*
6.0121e-4
RAAN
31.4971°
Arg perigee
271.2967°
Mean anomaly
88.7709°
Rev number
7,872

§ Raw data

STARLINK-339301 63776U 25091B   26263.70469433  .00016327  00000+0  60121-3 0  99922 63776  42.9986  31.4971 0001529 271.2967  88.7709 15.27595570 78724

JSON: /api/v1/satellites/63776 · /tle

For live sub-satellite position, see the globe view (requires WebGL).

§ Visibility from observer

Set your observer location to see the next 7 days of passes ≥ 10°. The values pass through the URL so the page stays shareable.

No JS? Fill the form by hand. The geolocation button needs JavaScript.